Wind_Speed
34 29 24 22 21 22 24 26 26 23 22 24 24 21 21 21 20 20 19 19 19 16 16 15 15 15 15 16 16 16 16 16 16 16 16 16 15 16 16 16 16 16 16 17
36 34 30 28 25 24 24 25 25 25 25 27 26 25 25 22 22 22 21 21 19 18 18 17 17 17 16 17 17 17 18 17 17 17 18 18 17 17 18 18 18 17 18 18
36 33 33 33 30 28 27 27 26 27 28 28 28 30 30 27 24 24 23 22 21 20 19 18 18 18 18 18 18 18 18 19 19 18 19 19 19 19 19 19 19 19 19 19
36 34 36 35 30 28 28 29 29 28 29 30 31 32 32 29 27 26 25 24 23 23 22 22 21 21 21 21 20 21 21 21 21 21 21 21 21 21 21 21 20 20 20 21
37 36 36 34 32 30 29 31 29 30 31 33 34 34 33 31 28 27 27 27 26 25 25 24 24 23 23 23 23 23 23 24 23 23 23 23 23 23 23 23 23 22 22 22
37 37 36 34 31 29 30 33 33 33 33 35 35 35 35 32 30 29 29 28 28 27 27 27 27 27 26 26 27 26 26 27 27 26 25 25 25 25 24 24 24 24 24 24
38 38 36 34 33 32 34 35 34 34 35 36 36 35 35 33 31 30 29 29 29 29 29 29 29 30 30 29 29 29 30 30 29 28 27 27 26 25 25 26 26 27 27 26
37 37 38 38 36 35 37 37 36 36 36 36 36 36 36 34 33 33 32 31 31 31 31 31 32 32 32 32 32 32 32 32 31 30 29 28 28 28 28 27 28 29 29 29
36 38 39 40 40 40 40 38 37 37 37 37 36 37 37 35 35 35 34 33 33 33 34 34 34 34 35 35 35 34 34 34 33 32 31 31 30 30 30 31 31 31 30 30
39 39 40 40 41 41 41 40 39 38 38 38 38 37 36 36 36 36 35 34 34 35 35 35 35 35 35 36 36 36 35 35 34 34 33 33 34 34 33 33 33 33 32 32
41 42 43 41 41 42 40 40 42 42 41 40 40 40 39 38 38 38 37 36 36 36 37 37 36 37 37 37 37 37 37 37 37 36 36 36 36 36 35 35 35 35 35 34
43 43 43 43 43 45 44 42 42 42 42 42 41 41 40 40 39 39 39 38 38 38 39 38 38 38 39 39 39 38 38 38 38 38 38 38 38 36 36 37 37 37 36 37
42 42 40 41 41 41 43 43 43 43 43 42 42 42 41 41 40 40 41 40 40 40 40 40 40 39 39 39 39 39 39 39 39 39 39 39 38 38 38 38 38 38 38 39
40 41 40 39 42 42 42 43 43 42 43 43 43 43 43 42 42 41 41 42 41 41 41 41 40 40 40 39 39 39 39 40 41 40 40 40 40 40 40 39 39 39 40 41
39 39 39 38 39 41 42 42 41 42 42 43 43 44 44 43 42 42 43 43 43 42 41 41 41 40 40 40 40 40 40 41 41 41 41 41 42 41 41 41 41 41 42 42
39 39 38 39 39 40 41 42 42 41 42 42 43 43 43 44 43 43 43 43 42 42 42 41 40 39 40 40 41 41 41 41 41 41 41 41 42 42 42 42 43 43 42 42
37 38 37 38 38 38 39 41 42 42 42 41 41 42 42 43 43 42 42 42 42 41 41 40 40 39 40 40 41 41 41 41 42 42 42 42 42 42 43 43 43 42 42 41
35 36 36 37 38 37 38 39 39 40 41 41 40 41 41 41 41 42 41 40 40 40 39 39 40 40 40 41 41 41 40 40 40 40 40 41 41 41 41 41 40 40 40 41
31 33 33 34 34 35 36 37 38 38 39 39 38 39 39 39 40 40 40 40 40 40 39 39 39 40 40 39 39 40 39 39 38 38 38 38 38 38 39 39 39 39 40 40
29 30 30 31 32 33 34 35 35 35 35 36 36 37 38 38 37 36 37 38 39 39 39 39 38 38 39 39 39 39 38 38 37 37 37 37 38 39 39 39 39 39 40 40
26 27 28 28 29 29 30 31 31 32 32 33 34 34 34 35 35 35 35 35 35 36 36 36 36 37 38 38 38 38 37 37 37 37 37 38 38 38 38 38 38 39 38 38
22 24 25 26 26 27 28 29 28 29 30 31 32 32 32 31 31 32 33 33 33 34 34 34 34 35 35 35 35 35 35 36 36 36 36 36 36 36 36 36 36 36 36 36
20 22 23 24 25 26 26 27 27 27 28 28 28 28 29 28 28 29 30 31 31 31 31 31 31 32 33 33 33 33 33 33 34 34 34 34 34 33 33 33 33 33 34 35
18 19 20 21 21 23 23 23 24 24 25 25 24 24 25 25 26 27 27 27 27 27 28 28 29 30 30 30 30 30 30 31 31 31 31 30 30 30 30 31 31 32 32 33
16 16 16 16 16 17 18 19 20 21 21 21 21 21 21 22 23 23 24 24 25 25 25 25 26 26 27 27 27 28 27 27 27 27 28 28 28 28 28 29 29 30 30 31
12 13 13 13 14 15 16 17 18 18 18 18 18 18 18 18 18 19 19 19 20 21 21 22 23 23 23 23 23 24 24 24 25 25 26 26 27 27 27 28 29 29 29 30
9 10 10 11 13 13 14 15 15 14 14 14 14 15 15 16 16 16 16 16 17 17 18 19 20 20 20 20 21 22 22 23 23 24 25 26 27 27 28 28 28 28 29 30
Wind_Direction
225 220 226 237 239 237 236 234 234 237 247 254 256 255 258 263 268 270 268 270 275 279 287 291 297 304 308 314 318 320 320 319 321 322 322 321 318 320 322 323 322 323 323 323
229 223 223 230 231 231 235 237 237 237 241 250 254 255 255 258 265 267 266 267 271 275 280 284 289 295 300 306 311 313 314 314 314 315 316 318 316 315 317 319 318 318 320 318
232 230 229 230 231 233 237 240 240 239 242 246 252 255 257 257 259 263 266 266 268 272 275 278 283 288 292 297 302 307 310 310 312 313 314 314 315 314 315 316 315 316 317 317
234 232 234 233 232 234 237 239 238 239 240 243 247 251 256 256 257 259 262 264 266 269 271 273 277 282 286 290 294 299 303 305 307 309 309 308 309 310 310 310 310 311 313 315
236 237 239 236 233 233 237 238 236 238 241 242 244 250 256 256 257 258 260 262 264 266 268 270 274 278 281 285 289 293 298 299 301 303 304 305 305 304 304 306 305 305 306 308
237 236 240 241 237 234 237 239 237 236 239 242 246 249 254 258 258 257 258 260 262 264 267 269 272 275 278 281 285 289 292 295 296 298 300 301 302 301 301 304 304 302 302 303
238 238 239 240 238 234 237 239 239 239 241 243 246 249 254 257 257 257 259 259 261 263 265 268 270 273 276 280 282 285 288 290 291 293 295 296 298 300 299 300 301 301 299 299
239 237 237 238 237 236 239 240 242 243 243 244 246 249 253 256 258 259 259 259 261 262 265 267 269 271 274 277 280 282 286 287 286 287 291 292 293 296 297 299 300 299 297 296
235 235 236 238 239 238 238 241 243 246 247 249 249 250 253 255 257 259 259 258 259 262 264 265 267 269 271 275 278 281 284 285 284 283 285 287 290 292 295 297 298 298 297 297
233 234 235 237 238 239 240 243 246 246 247 249 251 253 254 256 257 258 260 260 261 262 264 265 267 269 271 274 276 278 280 281 282 283 283 285 287 289 291 293 295 294 295 295
236 238 238 239 239 240 242 243 245 247 250 251 252 253 254 256 257 258 259 260 261 262 264 266 267 269 270 272 274 276 277 278 280 281 282 282 283 285 287 290 291 292 292 292
237 240 240 240 239 238 242 245 246 247 249 250 252 254 255 256 257 258 259 259 261 263 264 265 267 270 271 273 274 274 275 275 278 279 280 281 282 283 285 287 288 288 289 289
238 240 242 243 240 240 242 244 247 249 249 251 252 254 255 256 257 258 259 259 261 263 265 266 267 269 272 273 274 274 274 275 276 278 280 281 282 283 284 285 286 286 287 288
239 239 243 246 244 244 244 246 248 250 251 252 253 253 254 256 257 258 259 260 260 263 264 266 267 270 271 273 274 274 274 276 277 278 279 280 281 282 284 285 285 285 285 286
243 244 246 247 247 246 246 247 248 250 251 252 253 254 254 255 257 258 259 259 260 263 265 267 268 269 270 271 273 274 275 277 278 278 279 280 281 281 282 284 285 285 285 285
245 247 248 249 248 247 246 247 249 250 252 254 255 255 255 256 257 260 261 261 261 263 265 266 266 267 269 271 273 274 275 277 278 278 278 279 280 281 282 283 284 284 285 285
246 247 249 250 249 249 248 248 249 250 251 254 256 256 257 258 258 260 261 261 262 263 263 264 266 267 268 271 272 274 275 276 277 278 278 279 281 282 282 282 283 283 284 285
245 246 248 249 250 250 250 251 252 253 253 255 257 256 257 257 257 258 260 261 262 263 265 266 267 268 269 271 274 275 277 278 278 278 279 280 281 281 281 282 283 284 285 286
248 247 248 249 249 249 250 251 253 253 254 255 257 257 258 258 259 258 260 261 263 264 265 267 269 270 271 273 275 276 278 279 280 280 280 281 281 281 282 283 284 284 284 285
248 249 249 250 251 251 251 251 253 254 255 256 257 258 258 258 259 259 261 262 263 264 265 266 269 271 272 274 275 276 277 278 279 279 280 281 283 283 284 284 285 284 284 285
250 252 254 254 254 253 253 253 253 254 255 256 256 257 258 258 258 259 261 263 265 265 266 267 270 272 274 274 274 274 276 277 277 278 280 282 283 284 285 285 285 285 284 284
251 251 252 253 253 253 253 253 253 254 255 255 255 257 258 257 257 259 261 263 266 267 269 271 272 273 274 275 275 276 277 277 277 279 282 284 285 285 285 285 285 284 283 282
250 250 250 250 253 253 252 252 252 253 255 255 255 256 258 258 260 262 262 264 267 268 270 271 272 273 274 275 275 276 276 277 279 281 282 283 283 284 285 285 284 284 284 284
251 251 250 250 251 250 249 249 250 250 252 253 254 257 258 258 262 265 265 265 267 269 271 272 273 273 273 273 274 275 275 276 277 279 281 283 284 286 287 287 287 287 286 286
252 251 250 249 247 246 247 248 249 249 252 254 257 260 261 263 265 266 267 268 269 271 272 274 276 277 277 278 278 278 278 277 278 281 283 286 287 288 289 290 291 290 290 290
256 252 250 249 249 247 247 249 251 255 257 256 257 261 264 265 265 268 268 268 270 274 275 275 277 280 280 282 284 283 282 281 283 285 286 288 289 290 291 293 294 293 293 293
254 253 252 251 249 247 245 246 251 255 256 256 257 260 264 267 269 272 274 276 277 278 279 281 282 284 285 285 287 287 286 286 288 288 289 291 292 292 292 292 292 292 292 293
Height
5878 5883 5887 5890 5892 5895 5898 5900 5903 5906 5907 5904 5905 5905 5906 5906 5907 5906 5906 5905 5903 5904 5905 5904 5903 5903 5902 5901 5900 5899 5897 5896 5894 5892 5891 5889 5888 5886 5885 5883 5881 5879 5878 5876
5869 5875 5879 5882 5886 5889 5891 5894 5896 5899 5900 5899 5898 5898 5899 5901 5902 5902 5902 5902 5900 5900 5902 5902 5901 5901 5900 5899 5898 5897 5895 5894 5892 5890 5888 5886 5884 5883 5882 5880 5879 5877 5875 5873
5862 5867 5871 5874 5879 5882 5885 5888 5890 5892 5894 5892 5892 5893 5894 5896 5897 5897 5897 5897 5898 5898 5898 5898 5898 5897 5896 5896 5894 5893 5892 5890 5888 5887 5885 5883 5881 5880 5878 5877 5875 5874 5872 5869
5854 5859 5861 5868 5873 5875 5878 5880 5882 5884 5885 5885 5885 5885 5887 5888 5890 5891 5891 5892 5892 5892 5893 5893 5893 5893 5892 5892 5890 5889 5888 5887 5885 5883 5881 5879 5877 5876 5874 5873 5871 5870 5868 5866
5846 5849 5853 5860 5863 5867 5869 5870 5872 5875 5876 5877 5878 5879 5879 5881 5883 5884 5885 5885 5886 5886 5887 5887 5887 5888 5887 5887 5886 5885 5884 5882 5880 5879 5877 5875 5873 5871 5870 5868 5867 5865 5863 5862
5837 5841 5845 5851 5854 5857 5859 5860 5863 5865 5867 5868 5870 5871 5871 5873 5875 5876 5877 5879 5880 5880 5880 5881 5881 5881 5881 5881 5880 5879 5878 5877 5875 5874 5872 5870 5868 5866 5865 5863 5861 5860 5858 5856
5828 5831 5836 5840 5843 5848 5851 5850 5853 5855 5858 5860 5861 5862 5864 5865 5867 5867 5870 5872 5873 5873 5874 5874 5874 5874 5874 5874 5874 5873 5871 5870 5869 5867 5866 5865 5862 5860 5859 5857 5855 5854 5852 5850
5819 5823 5828 5829 5833 5837 5837 5840 5843 5846 5847 5849 5852 5855 5855 5857 5859 5861 5863 5864 5865 5866 5866 5867 5866 5866 5867 5867 5866 5865 5864 5863 5861 5860 5859 5858 5856 5854 5852 5850 5849 5847 5845 5843
5809 5813 5816 5819 5823 5826 5828 5831 5834 5837 5839 5841 5843 5845 5848 5850 5851 5852 5853 5855 5856 5857 5858 5859 5858 5859 5859 5858 5857 5857 5856 5855 5853 5852 5851 5850 5849 5847 5845 5843 5842 5840 5838 5836
5798 5802 5805 5808 5812 5815 5818 5822 5825 5826 5828 5831 5834 5836 5839 5841 5842 5843 5844 5846 5847 5849 5849 5849 5849 5849 5849 5849 5849 5848 5847 5846 5845 5843 5842 5841 5840 5838 5837 5835 5834 5832 5830 5828
5788 5791 5795 5798 5800 5804 5807 5809 5813 5817 5819 5821 5824 5827 5829 5831 5832 5834 5835 5837 5838 5839 5840 5840 5840 5840 5840 5840 5839 5839 5838 5837 5836 5834 5833 5832 5831 5829 5828 5827 5825 5823 5821 5819
5777 5781 5783 5787 5789 5793 5797 5799 5802 5805 5808 5811 5813 5816 5818 5820 5822 5823 5825 5826 5828 5828 5829 5829 5830 5830 5830 5830 5829 5829 5828 5827 5826 5825 5824 5822 5820 5819 5817 5817 5816 5814 5812 5810
5767 5770 5773 5775 5778 5782 5786 5789 5792 5794 5797 5800 5802 5805 5807 5809 5811 5813 5814 5816 5817 5817 5818 5819 5819 5819 5820 5819 5819 5818 5818 5817 5816 5815 5814 5813 5811 5810 5809 5807 5805 5804 5802 5800
5756 5760 5762 5764 5767 5772 5775 5778 5781 5783 5786 5789 5791 5793 5796 5798 5800 5802 5803 5804 5806 5806 5806 5807 5808 5809 5809 5808 5808 5807 5807 5806 5805 5804 5803 5802 5801 5799 5798 5796 5795 5793 5791 5789
5747 5749 5753 5754 5758 5762 5765 5768 5770 5772 5775 5777 5780 5782 5785 5787 5789 5791 5792 5792 5794 5794 5795 5796 5797 5797 5797 5797 5796 5796 5796 5795 5794 5793 5792 5791 5790 5788 5787 5785 5784 5782 5780 5778
5738 5740 5743 5746 5749 5751 5754 5758 5760 5762 5764 5767 5769 5771 5773 5776 5778 5780 5781 5780 5782 5783 5784 5785 5785 5785 5785 5786 5785 5784 5784 5783 5782 5781 5780 5779 5777 5776 5775 5774 5772 5770 5768 5766
5729 5732 5734 5737 5739 5742 5744 5747 5749 5751 5754 5756 5758 5760 5762 5764 5767 5768 5769 5770 5771 5772 5773 5774 5774 5774 5774 5774 5773 5772 5772 5771 5770 5769 5768 5767 5765 5764 5763 5761 5760 5758 5756 5754
5720 5723 5725 5728 5730 5732 5734 5736 5739 5741 5743 5745 5747 5749 5751 5753 5755 5757 5759 5760 5761 5761 5762 5763 5763 5763 5762 5761 5761 5761 5761 5760 5759 5757 5756 5755 5753 5752 5751 5749 5747 5746 5744 5743
5712 5715 5717 5719 5721 5723 5725 5727 5729 5731 5733 5736 5737 5739 5741 5742 5744 5746 5748 5749 5750 5751 5752 5752 5752 5752 5751 5750 5750 5750 5749 5748 5747 5746 5744 5743 5742 5740 5739 5737 5736 5734 5733 5731
5705 5707 5709 5711 5713 5715 5717 5719 5721 5722 5724 5726 5727 5729 5731 5732 5734 5735 5737 5738 5739 5741 5741 5742 5742 5742 5741 5740 5740 5739 5738 5737 5736 5735 5734 5732 5731 5729 5727 5726 5724 5723 5721 5719
5698 5700 5702 5704 5705 5707 5709 5711 5712 5714 5715 5717 5719 5720 5722 5723 5724 5726 5727 5728 5729 5730 5731 5731 5731 5731 5731 5730 5729 5728 5727 5727 5726 5725 5723 5721 5720 5718 5716 5714 5713 5711 5709 5707
5692 5693 5695 5697 5698 5700 5701 5703 5704 5706 5707 5709 5711 5712 5713 5714 5715 5717 5718 5719 5720 5720 5720 5721 5721 5720 5720 5719 5719 5718 5717 5716 5715 5714 5712 5710 5709 5707 5705 5703 5701 5700 5698 5696
5686 5687 5688 5690 5691 5692 5694 5696 5697 5699 5700 5701 5703 5704 5705 5706 5707 5709 5710 5710 5711 5711 5711 5711 5710 5710 5710 5709 5709 5708 5707 5706 5704 5703 5702 5700 5698 5696 5695 5693 5691 5689 5687 5685
5681 5682 5683 5684 5685 5686 5688 5689 5691 5692 5694 5695 5696 5698 5699 5700 5700 5700 5701 5701 5702 5702 5702 5701 5701 5701 5701 5700 5699 5698 5697 5696 5695 5693 5692 5690 5689 5687 5685 5683 5681 5679 5677 5675
5676 5677 5678 5679 5680 5681 5683 5684 5686 5687 5688 5689 5691 5692 5693 5694 5694 5694 5694 5694 5694 5694 5694 5694 5693 5693 5692 5691 5690 5689 5688 5687 5686 5684 5683 5681 5680 5678 5676 5674 5672 5670 5668 5666
5673 5674 5675 5676 5677 5678 5679 5680 5681 5682 5684 5685 5686 5686 5687 5688 5688 5688 5688 5687 5688 5687 5687 5687 5686 5686 5685 5684 5683 5681 5680 5679 5678 5677 5675 5673 5672 5670 5668 5666 5664 5661 5659 5657
5671 5672 5672 5673 5674 5675 5676 5677 5678 5679 5680 5680 5681 5682 5683 5683 5683 5683 5683 5682 5682 5682 5681 5681 5680 5679 5678 5677 5676 5675 5673 5672 5671 5669 5667 5666 5664 5662 5660 5657 5655 5653 5651 5648